Home   Weather   Tempe   Past weeks
Flag for USA

Past Weather in Tempe, Arizona, USA — Yesterday and Last 2 Weeks

Now
101 °F

Broken clouds.


Feels Like: 96 °F
Forecast: 106 / 84 °F
Wind: 8 mph from West

Location: Phoenix Sky Harbor International Airport

Current Time: Jul 19, 2019 at 12:38:25 pm

Latest Report: Jul 19, 2019 at 11:51 am


Visibility: 10 mi

Pressure: 29.76 "Hg

Humidity: 13%

Dew Point: 41 °F

Location of TempeLocation

Past Weather in Tempe — Graph

°F

Tempe Temperature Yesterday

Maximum temperature yesterday: 106 °F (at 4:51 pm)
Minimum temperature yesterday: 87 °F (at 4:51 am)
Average temperature yesterday: 97 °F

High & Low Weather Summary for the Past Weeks

 TemperatureHumidityPressure
High115 °F (Jul 16, 2:51 pm)41% (Jul 15, 5:51 am)29.92 "Hg (Jul 15, 5:51 am)
Low77 °F (Jul 8, 5:51 am)3% (Jul 8, 4:51 pm)29.59 "Hg (Jul 12, 5:51 pm)
Average98 °F16%29.76 "Hg
* Reported Jul 4 10:51 am — Jul 19 10:51 am, Tempe. Weather by CustomWeather, © 2019

Note: Actual official high and low records may vary slightly from our data, if they occured in-between our weather recording intervals... More about our weather records

Advertising

Tempe Weather History for the Previous 24 Hours

Scroll right to see more
 ConditionsComfort  
Time TempWeatherWind HumidityBarometerVisibility
10:51 am
Fri, Jul 19
100 °FBroken clouds.8 mph16%29.77 "Hg10 mi
9:51 am96 °FBroken clouds.5 mph19%29.78 "Hg10 mi
8:51 am94 °FBroken clouds.No wind23%29.77 "Hg10 mi
7:51 am93 °FBroken clouds.3 mph26%29.76 "Hg10 mi
6:51 am90 °FPartly sunny.6 mph26%29.74 "Hg10 mi
5:51 am86 °FScattered clouds.5 mph31%29.73 "Hg10 mi
4:51 am90 °FPassing clouds.No wind27%29.72 "Hg10 mi
3:51 am91 °FPartly cloudy.No wind28%29.71 "Hg10 mi
2:51 am94 °FPassing clouds.13 mph24%29.70 "Hg10 mi
1:51 am95 °FPartly cloudy.10 mph23%29.69 "Hg10 mi
12:51 am96 °FPassing clouds.8 mph22%29.69 "Hg10 mi
11:51 pm
Thu, Jul 18
97 °FPassing clouds.7 mph16%29.69 "Hg10 mi
10:51 pm96 °FPassing clouds.3 mph15%29.69 "Hg10 mi
9:51 pm97 °FPassing clouds.3 mph14%29.68 "Hg10 mi
8:51 pm100 °FPartly cloudy.8 mph12%29.67 "Hg10 mi
7:51 pm103 °FPartly cloudy.12 mph11%29.66 "Hg10 mi
6:51 pm105 °FBroken clouds.16 mph9%29.65 "Hg10 mi
5:51 pm106 °FBroken clouds.14 mph10%29.66 "Hg10 mi
4:51 pm106 °FPartly sunny.13 mph11%29.67 "Hg10 mi
3:51 pm105 °FPartly sunny.14 mph13%29.69 "Hg10 mi
2:51 pm104 °FBroken clouds.13 mph12%29.72 "Hg10 mi
1:51 pm103 °FScattered clouds.9 mph12%29.75 "Hg10 mi
12:51 pm102 °FScattered clouds.13 mph12%29.78 "Hg10 mi
Weather by CustomWeather, © 2019

See weather overview